EW2719 Weather Reports


time (UTC)temp
C
wind
direction
speed
KPH
gust
KPH
rain 1hr
cm
rain 24hr
cm
rain mn
cm
humidity
%
barometer
mb
20260504223039 6 293 11.3 19.3 0.00 0.28 0.00 91 1011.6
20260504221535 5 306 8.0 14.5 0.00 0.28 0.00 90 1011.6
20260504220034 6 275 9.7 16.1 0.00 0.28 0.00 90 1011.7
20260504214529 6 274 9.7 16.1 0.00 0.43 0.28 89 1011.9
20260504213032 6 276 8.0 16.1 0.00 0.43 0.28 89 1011.8
20260504211525 6 279 8.0 16.1 0.00 0.43 0.28 89 1011.8
20260504210023 6 284 8.0 14.5 0.00 0.43 0.28 88 1011.9
20260504204524 6 269 9.7 16.1 0.00 0.69 0.28 88 1011.8
20260504203018 7 269 6.4 16.1 0.00 0.69 0.28 87 1011.8
20260504201516 7 275 9.7 17.7 0.00 0.69 0.28 86 1011.7
20260504200015 7 298 9.7 16.1 0.00 0.69 0.28 85 1011.8
20260504194513 8 305 9.7 16.1 0.00 0.69 0.28 84 1011.7
20260504193013 8 310 11.3 20.9 0.00 0.69 0.28 84 1011.7
20260504191516 8 302 6.4 17.7 0.00 0.69 0.28 84 1011.6
20260504190011 8 313 11.3 17.7 0.00 0.69 0.28 83 1011.5
20260504184510 8 301 11.3 20.9 0.00 0.71 0.28 83 1011.4
20260504183008 9 284 11.3 22.5 0.00 0.71 0.28 82 1011.4
20260504181507 9 281 12.9 24.1 0.00 0.71 0.28 81 1011.4
20260504180005 9 303 17.7 29.0 0.00 0.71 0.28 78 1011.3
20260504174507 10 293 17.7 25.7 0.00 0.71 0.28 77 1011.2
20260504173105 10 313 20.9 27.4 0.00 0.71 0.28 76 1011.1
20260504171558 11 291 16.1 24.1 0.00 0.71 0.28 74 1011.2
20260504081506 10 290 12.9 25.7 0.00 0.71 0.28 82 1008.9
20260504044528 7 273 8.0 16.1 0.00 0.69 0.25 94 1006.8
20260504043037 7 294 9.7 17.7 0.00 0.69 0.25 95 1006.7
20260504041523 7 290 6.4 12.9 0.00 0.69 0.25 95 1006.5
20260504040024 7 267 4.8 12.9 0.00 0.69 0.25 95 1006.7
20260504034517 7 302 8.0 16.1 0.00 0.69 0.25 95 1006.6
20260504033016 8 319 8.0 16.1 0.00 0.69 0.25 95 1006.6
20260504031515 8 320 8.0 17.7 0.03 0.69 0.25 95 1006.6
20260504030016 8 321 14.5 24.1 0.03 0.69 0.25 95 1006.5
20260504024514 8 333 12.9 22.5 0.03 0.69 0.25 95 1006.5
20260504023007 9 345 8.0 17.7 0.05 0.69 0.25 95 1006.4
20260504021506 9 350 11.3 16.1 0.05 0.66 0.23 95 1006.2
20260504020003 10 360 6.4 12.9 0.08 0.66 0.23 95 1006.2
20260504014559 10 5 8.0 14.5 0.13 0.66 0.23 94 1006.1
20260504013113 10 360 4.8 12.9 0.13 0.64 0.23 94 1006.1
20260504011555 10 30 1.6 4.8 0.13 0.61 0.18 94 1006.3
20260504010154 10 138 1.6 3.2 0.13 0.58 0.15 94 1006.3
20260504004606 10 138 0.0 3.2 0.08 0.53 0.13 94 1006.1
20260504003051 10 137 0.0 3.2 0.05 0.51 0.10 94 1006.2
20260504001550 10 137 1.6 4.8 0.05 0.48 0.05 94 1006.3
20260504000050 10 138 0.0 0.0 0.03 0.46 0.05 94 1006.3
20260503234549 10 138 0.0 1.6 0.03 0.46 0.05 94 1006.3
20260503233047 10 138 1.6 4.8 0.03 0.46 0.05 94 1006.5
20260503231548 10 136 0.0 3.2 0.03 0.43 0.03 94 1006.5
20260503230054 11 136 0.0 1.6 0.03 0.43 0.03 94 1006.7
20260503224543 11 136 0.0 0.0 0.05 0.43 0.03 94 1006.8